Terminal Aerodrome Forecast
Issued by NWS

Home | Current Version | Previous Version | Text Only | Print | Product List | Glossary On
Versions: 1 2 3 4 5 6 7 8 9 10 11 12 13 14 15 16 17 18 19 20
000
FTUS46 KSEW 290520
TAFHQM
TAF
KHQM 290520Z 2906/3006 24006KT P6SM SCT005
      TEMPO 2906/2908 3SM BR BKN003
     FM290800 33005KT 3SM BR OVC003
     FM291100 VRB03KT 1SM BR OVC002
     FM291700 25005KT 3SM BR OVC008
     FM292000 24012KT 5SM BR BKN015
     FM292200 24015G22KT 5SM HZ SCT015=

USA.gov is the U.S. government's official web portal to all federal, state and local government web resources and services.